Weather History for Houston / Dunn Helistop, TX

Change the Weather History Date:

Saturday, November 30, 2013

  Actual Average (KHOU) Record (KHOU)
Temperature  
Mean Temperature 58 °F 58 °F  
Max Temperature 71 °F 68 °F 82 °F (1950)
Min Temperature 46 °F 48 °F 19 °F (1976)
Degree Days  
Heating Degree Days 6 9  
Month to date heating degree days 155  
Since 1 July heating degree days 185  
Growing Degree Days 8 (Base 50)    
Moisture  
Dew Point 47 °F    
Average Humidity 68    
Maximum Humidity 100    
Minimum Humidity 43    
Precipitation  
Precipitation 0.00 in 0.15 in 1.41 in (1968)
Month to date precipitation 4.34  
Year to date precipitation 46.03  
Sea Level Pressure  
Sea Level Pressure 30.28 in    
Wind  
Wind Speed 7 mph (East)    
Max Wind Speed 13 mph    
Max Gust Speed 16 mph    
Visibility 9 miles    
Events      
T = Trace of Precipitation, MM = Missing Value Source: NWS Daily Summary

Daily Weather History Graph

Daily Weather History Graph

Search for Another Location

Airport:

Trip Planner

Search our weather history database for the weather conditions in past years. The results will help you decide how hot, cold, wet, or windy it might be!

Date:

Astronomy

Nov. 30, 2013 Rise Set
Actual Time 6:58 AM CST 5:21 PM CST
Civil Twilight 6:32 AM CST 5:47 PM CST
Nautical Twilight 6:03 AM CST 6:17 PM CST
Astronomical Twilight 5:34 AM CST 6:46 PM CST
Moon 4:20 AM CST (11/30) 3:38 PM CST (11/30)
Length of Visible Light 11h 15m
Length of Day
10h 23m
Waning Crescent, 7% of the Moon is Illuminated
Nov 30
Waning Crescent
Dec 2
New
Dec 9
First Quarter
Dec 17
Full
Dec 25
Last Quarter

Hourly Weather History & Observations

Time (CST) Temp. Windchill Dew Point Humidity Pressure Visibility Wind Dir Wind Speed Gust Speed Precip Events Conditions
12:15 AM 50.0 °F - 37.4 °F 62% 30.37 in 10.0 mi ESE 6.9 mph 16.1 mph N/A   Clear
12:35 AM 50.0 °F - 37.4 °F 62% 30.36 in 10.0 mi ESE 6.9 mph - N/A   Clear
12:55 AM 48.2 °F - 37.4 °F 66% 30.34 in 10.0 mi ESE 6.9 mph - N/A   Clear
1:15 AM 48.2 °F - 39.2 °F 71% 30.34 in 10.0 mi East 6.9 mph - N/A   Clear
1:35 AM 48.2 °F - 39.2 °F 71% 30.34 in 10.0 mi ESE 6.9 mph - N/A   Clear
1:55 AM 48.2 °F - 39.2 °F 71% 30.34 in 10.0 mi East 5.8 mph - N/A   Clear
2:15 AM 50.0 °F - 41.0 °F 71% 30.33 in 10.0 mi East 8.1 mph - N/A   Clear
2:35 AM 50.0 °F - 41.0 °F 71% 30.33 in 10.0 mi East 6.9 mph - N/A   Clear
2:55 AM 50.0 °F - 41.0 °F 71% 30.33 in 10.0 mi East 6.9 mph - N/A   Clear
3:15 AM 50.0 °F - 41.0 °F 71% 30.33 in 10.0 mi East 6.9 mph - N/A   Clear
3:35 AM 50.0 °F - 41.0 °F 71% 30.33 in 10.0 mi ENE 5.8 mph - N/A   Clear
3:55 AM 50.0 °F - 41.0 °F 71% 30.33 in 10.0 mi NE 6.9 mph - N/A   Clear
4:15 AM 51.8 °F - 41.0 °F 67% 30.32 in 10.0 mi NE 6.9 mph - N/A   Clear
4:35 AM 50.0 °F - 41.0 °F 71% 30.32 in 10.0 mi ENE 6.9 mph - N/A   Clear
4:55 AM 50.0 °F - 41.0 °F 71% 30.32 in 10.0 mi ENE 6.9 mph - N/A   Clear
5:15 AM 50.0 °F - 41.0 °F 71% 30.32 in 10.0 mi NE 5.8 mph - N/A   Clear
5:35 AM 48.2 °F - 41.0 °F 76% 30.32 in 10.0 mi ENE 6.9 mph - N/A   Clear
5:55 AM 48.2 °F - 41.0 °F 76% 30.32 in 10.0 mi NE 5.8 mph - N/A   Clear
6:15 AM 46.4 °F 43.5 °F 41.0 °F 81% 30.33 in 10.0 mi NE 5.8 mph - N/A   Clear
6:35 AM 46.4 °F 42.9 °F 41.0 °F 81% 30.33 in 10.0 mi NE 6.9 mph - N/A   Clear
6:55 AM 46.4 °F 42.9 °F 41.0 °F 81% 30.33 in 10.0 mi NE 6.9 mph - N/A   Clear
7:15 AM 46.4 °F 42.9 °F 41.0 °F 81% 30.33 in 10.0 mi NE 6.9 mph - N/A   Clear
7:35 AM 46.4 °F 42.9 °F 41.0 °F 81% 30.34 in 10.0 mi NE 6.9 mph - N/A   Clear
7:55 AM 48.2 °F - 41.0 °F 76% 30.34 in 10.0 mi NE 8.1 mph - N/A   Clear
8:15 AM 48.2 °F - 41.0 °F 76% 30.35 in 10.0 mi ENE 5.8 mph - N/A   Clear
8:35 AM 50.0 °F - 42.8 °F 76% 30.36 in 10.0 mi NE 5.8 mph - N/A   Clear
8:55 AM 51.8 °F - 44.6 °F 76% 30.36 in 10.0 mi NE 4.6 mph - N/A   Clear
9:15 AM 55.4 °F - 44.6 °F 67% 30.36 in 10.0 mi NE 5.8 mph - N/A   Clear
9:35 AM 57.2 °F - 46.4 °F 67% 30.36 in 10.0 mi NE 5.8 mph - N/A   Clear
9:55 AM 59.0 °F - 46.4 °F 63% 30.36 in 10.0 mi NE 5.8 mph - N/A   Clear
10:15 AM 60.8 °F - 46.4 °F 59% 30.36 in 10.0 mi ENE 6.9 mph - N/A   Clear
10:35 AM 62.6 °F - 46.4 °F 55% 30.36 in 10.0 mi ENE 8.1 mph - N/A   Clear
10:55 AM 64.4 °F - 48.2 °F 56% 30.35 in 10.0 mi East 6.9 mph - N/A   Clear
11:15 AM 66.2 °F - 48.2 °F 52% 30.34 in 10.0 mi ENE 6.9 mph - N/A   Clear
11:35 AM 66.2 °F - 50.0 °F 56% 30.33 in 9.0 mi ENE 6.9 mph - N/A   Clear
11:55 AM 68.0 °F - 48.2 °F 49% 30.33 in 10.0 mi SSE 3.5 mph - N/A   Clear
12:15 PM 68.0 °F - 48.2 °F 49% 30.31 in 10.0 mi ESE 9.2 mph - N/A   Clear
12:35 PM 69.8 °F - 50.0 °F 49% 30.29 in 10.0 mi SE 6.9 mph - N/A   Clear
12:55 PM 71.6 °F - 48.2 °F 43% 30.29 in 10.0 mi SE 6.9 mph - N/A   Clear
1:15 PM 71.6 °F - 48.2 °F 43% 30.27 in 10.0 mi SE 4.6 mph - N/A   Clear
1:35 PM 71.6 °F - 48.2 °F 43% 30.26 in 10.0 mi East 9.2 mph - N/A   Clear
1:55 PM 71.6 °F - 50.0 °F 46% 30.25 in 10.0 mi East 5.8 mph - N/A   Clear
2:15 PM 71.6 °F - 50.0 °F 46% 30.24 in 10.0 mi ESE 8.1 mph - N/A   Clear
2:35 PM 69.8 °F - 48.2 °F 46% 30.24 in 10.0 mi ESE 4.6 mph - N/A   Clear
2:55 PM 71.6 °F - 48.2 °F 43% 30.23 in 7.0 mi ESE 8.1 mph - N/A   Clear
3:15 PM 71.6 °F - 48.2 °F 43% 30.23 in 10.0 mi ESE 6.9 mph - N/A   Clear
3:35 PM 69.8 °F - 48.2 °F 46% 30.23 in 9.0 mi ESE 8.1 mph - N/A   Partly Cloudy
3:55 PM 69.8 °F - 46.4 °F 43% 30.22 in 9.0 mi East 11.5 mph - N/A   Partly Cloudy
4:15 PM 66.2 °F - 46.4 °F 49% 30.22 in 10.0 mi ESE 10.4 mph - N/A   Clear
4:35 PM 66.2 °F - 46.4 °F 49% 30.21 in 10.0 mi ESE 12.7 mph - N/A   Mostly Cloudy
4:55 PM 64.4 °F - 46.4 °F 52% 30.21 in 10.0 mi ESE 9.2 mph - N/A   Overcast
5:15 PM 64.4 °F - 46.4 °F 52% 30.21 in 10.0 mi ESE 8.1 mph - N/A   Overcast
5:35 PM 64.4 °F - 46.4 °F 52% 30.21 in 8.0 mi ESE 8.1 mph - N/A   Overcast
5:55 PM 64.4 °F - 48.2 °F 56% 30.21 in 10.0 mi ESE 9.2 mph - N/A   Overcast
6:15 PM 62.6 °F - 50.0 °F 63% 30.22 in 10.0 mi SE 5.8 mph - N/A   Overcast
6:35 PM 62.6 °F - 51.8 °F 68% 30.22 in 10.0 mi ESE 9.2 mph - N/A   Overcast
6:55 PM 60.8 °F - 51.8 °F 72% 30.22 in 10.0 mi ESE 10.4 mph - N/A   Overcast
7:15 PM 59.0 °F - 51.8 °F 77% 30.22 in 10.0 mi ESE 10.4 mph 16.1 mph N/A   Overcast
7:35 PM 59.0 °F - 53.6 °F 82% 30.22 in 10.0 mi ESE 10.4 mph - N/A   Mostly Cloudy
7:55 PM 57.2 °F - 53.6 °F 88% 30.23 in 10.0 mi ESE 9.2 mph - N/A   Clear
8:15 PM 57.2 °F - 53.6 °F 88% 30.24 in 10.0 mi ESE 6.9 mph - N/A   Mostly Cloudy
8:35 PM 57.2 °F - 53.6 °F 88% 30.23 in 10.0 mi ESE 8.1 mph - N/A   Scattered Clouds
8:55 PM 57.2 °F - 53.6 °F 88% 30.21 in 10.0 mi ESE 9.2 mph 16.1 mph N/A   Clear
9:15 PM 57.2 °F - 53.6 °F 88% 30.21 in 5.0 mi ESE 11.5 mph - N/A   Clear
9:35 PM 55.4 °F - 55.4 °F 100% 30.21 in 4.0 mi SE 11.5 mph - N/A   Clear
9:55 PM 55.4 °F - 55.4 °F 100% 30.21 in 4.0 mi SE 11.5 mph - N/A   Clear
10:15 PM 55.4 °F - 55.4 °F 100% 30.20 in 4.0 mi SE 10.4 mph - N/A   Clear
10:35 PM 55.4 °F - 55.4 °F 100% 30.20 in 4.0 mi SE 10.4 mph - N/A   Clear
10:55 PM 55.4 °F - 55.4 °F 100% 30.20 in 5.0 mi SE 10.4 mph - N/A   Clear
11:15 PM 57.2 °F - 55.4 °F 94% 30.20 in 7.0 mi SE 11.5 mph - N/A   Clear
11:35 PM 57.2 °F - 55.4 °F 94% 30.20 in 10.0 mi SE 9.2 mph - N/A   Clear
11:55 PM 55.4 °F - 53.6 °F 94% 30.20 in 9.0 mi SE 8.1 mph - N/A   Clear